Weather History for Ft Lauderdale, FL

Change the Weather History Date:

Saturday, December 29, 2012

  Actual Average Record
Temperature  
Mean Temperature 78 °F 69 °F  
Max Temperature 83 °F 77 °F 86 °F (1934)
Min Temperature 72 °F 62 °F 36 °F (1928)
Degree Days  
Heating Degree Days 0 1  
Month to date heating degree days 16 24  
Since 1 July heating degree days 26  
Cooling Degree Days 13 6  
Month to date cooling degree days 247 206  
Year to date cooling degree days 4602 4719  
Growing Degree Days 25 (Base 50)    
Moisture  
Dew Point 69 °F    
Average Humidity 79    
Maximum Humidity 93    
Minimum Humidity 65    
Precipitation  
Precipitation 0.00 in 0.05 in 1.37 in (1939)
Month to date precipitation 0.75 2.34  
Year to date precipitation 60.87 62.06  
Snow  
Snow 0.00 in - - ()
Month to date snowfall 0.0  
Since 1 July snowfall 0.0  
Snow Depth 0.00 in    
Sea Level Pressure  
Sea Level Pressure 30.00 in    
Wind  
Wind Speed 9 mph (SW)    
Max Wind Speed 18 mph    
Max Gust Speed 24 mph    
Visibility 10 miles    
Events      
T = Trace of Precipitation, MM = Missing Value Source: NWS Daily Summary

Daily Weather History Graph

Daily Weather History Graph

Search for Another Location

Airport:

Trip Planner

Search our weather history database for the weather conditions in past years. The results will help you decide how hot, cold, wet, or windy it might be!

Date:

Astronomy

Dec. 29, 2012 Rise Set
Actual Time 7:07 AM EST 5:38 PM EST
Civil Twilight 6:41 AM EST 6:04 PM EST
Nautical Twilight 6:13 AM EST 6:32 PM EST
Astronomical Twilight 5:44 AM EST 7:01 PM EST
Moon 7:00 PM EST 7:47 AM EST
Length of Visible Light 11h 22m
Length of Day
10h 31m
Full, 98% of the Moon is Illuminated
Dec 29
Full
Jan 4
Last Quarter
Jan 11
New
Jan 18
First Quarter
Jan 26
Full

Hourly Weather History & Observations

Time (EST) Temp. Heat Index Dew Point Humidity Pressure Visibility Wind Dir Wind Speed Gust Speed Precip Events Conditions
12:53 AM 73.9 °F - 70.0 °F 87% 29.98 in 10.0 mi South 6.9 mph - N/A   Partly Cloudy
1:53 AM 75.0 °F - 70.0 °F 84% 29.96 in 10.0 mi South 9.2 mph - N/A   Partly Cloudy
2:53 AM 75.0 °F - 70.0 °F 84% 29.94 in 10.0 mi South 9.2 mph - N/A   Scattered Clouds
3:53 AM 75.0 °F - 70.0 °F 84% 29.95 in 10.0 mi South 9.2 mph - N/A   Scattered Clouds
4:53 AM 73.9 °F - 70.0 °F 87% 29.96 in 10.0 mi South 6.9 mph - N/A   Partly Cloudy
5:53 AM 73.0 °F - 70.0 °F 90% 29.97 in 10.0 mi South 5.8 mph - N/A   Partly Cloudy
6:53 AM 73.0 °F - 70.0 °F 90% 30.01 in 10.0 mi SW 4.6 mph - N/A   Partly Cloudy
7:53 AM 73.0 °F - 71.1 °F 93% 30.01 in 10.0 mi South 5.8 mph - N/A   Partly Cloudy
8:53 AM 75.0 °F - 71.1 °F 87% 30.04 in 10.0 mi SSW 8.1 mph - N/A   Partly Cloudy
9:53 AM 79.0 °F - 71.1 °F 77% 30.03 in 10.0 mi South 12.7 mph - N/A   Scattered Clouds
10:47 AM 80.6 °F 84.6 °F 71.6 °F 74% 30.03 in 10.0 mi SSW 16.1 mph 23.0 mph N/A   Scattered Clouds
10:53 AM 81.0 °F 84.9 °F 71.1 °F 72% 30.03 in 10.0 mi SW 13.8 mph 23.0 mph N/A   Mostly Cloudy
11:53 AM 81.0 °F 84.9 °F 71.1 °F 72% 30.00 in 10.0 mi SW 11.5 mph 18.4 mph N/A   Scattered Clouds
12:53 PM 82.0 °F 85.5 °F 69.1 °F 65% 29.98 in 10.0 mi WSW 10.4 mph 19.6 mph N/A   Mostly Cloudy
1:53 PM 82.9 °F 87.0 °F 70.0 °F 65% 29.96 in 10.0 mi WSW 9.2 mph 17.3 mph N/A   Mostly Cloudy
2:53 PM 82.0 °F 85.9 °F 70.0 °F 67% 29.95 in 10.0 mi WSW 11.5 mph 20.7 mph N/A   Mostly Cloudy
3:53 PM 80.1 °F 83.2 °F 70.0 °F 71% 29.94 in 10.0 mi WSW 10.4 mph - N/A   Partly Cloudy
4:53 PM 80.1 °F 82.7 °F 68.0 °F 67% 29.95 in 10.0 mi WSW 11.5 mph - N/A   Partly Cloudy
5:53 PM 78.1 °F - 68.0 °F 71% 29.96 in 10.0 mi WSW 8.1 mph - N/A   Scattered Clouds
6:53 PM 77.0 °F - 70.0 °F 79% 29.99 in 10.0 mi WSW 6.9 mph - N/A   Clear
7:53 PM 75.9 °F - 70.0 °F 82% 30.01 in 10.0 mi West 10.4 mph - N/A   Partly Cloudy
8:53 PM 73.9 °F - 70.0 °F 87% 30.04 in 10.0 mi West 10.4 mph - N/A   Partly Cloudy
9:45 PM 71.6 °F - 66.2 °F 83% 30.06 in 10.0 mi NW 15.0 mph 21.9 mph N/A   Mostly Cloudy
9:53 PM 71.1 °F - 64.0 °F 78% 30.06 in 10.0 mi WNW 15.0 mph 21.9 mph N/A   Scattered Clouds
10:53 PM 68.0 °F - 60.1 °F 76% 30.09 in 10.0 mi NW 10.4 mph 25.3 mph N/A   Clear
11:53 PM 64.0 °F - 54.0 °F 70% 30.10 in 10.0 mi NW 11.5 mph 18.4 mph N/A   Clear